OneWeb SL0286

operational
NORAD ID: 49076 Int'l Des: 2021-075 Owner: ONEWEBN Country: UK Constellation: oneweb
LEOCIRCULARPOLARONEWEB_TYPE

OneWeb SL0286について

説明を読み込み中...

リアルタイム位置

3D地球を読み込み中...

次回通過

高度履歴

Altitude vs Time

uPlot chart will show altitude changes over time

軌道要素

1 49076U 21075B 26033.48373831 .00000269 00000-0 71181-3 0 9990
2 49076 87.8942 17.4273 0001979 83.4457 276.6897 13.12443275216890
Epoch: Feb 2, 2026 • Age: 13 hours

現在のステータス

高度 1224.3 km
速度 7.25 km/s
衛星直下点 69.12°N, 121.92°W
打ち上げ日 Aug 21, 2021
運用期間 4.4 years
タイプ internet

技術仕様

分類 Payload
質量 148.00 kg
乾燥質量 140.00 kg
総質量 148.00 kg
長さ 1.30 m
直径 1.00 m
スパン 5.00 m
形状 Trapezoid+2 pan
製造者 ONEWUS
バスタイプ ARROW
フェーズステータス In Orbit
所有者/国 ONEWEBN/UK

大規模コンステレーション

Loading constellations...